• MPC Preparation (Info)

  • MPEC 2023-F208 : 2023 FF7

    The following Minor Planet Electronic Circular may be linked-to from your own Web pages, but must not otherwise be redistributed electronically.

    A form allowing access to any MPEC is at the bottom of this page.


    Read MPEC 2023-F207 Read MPEC 2023-F209


    M.P.E.C. 2023-F208                               Issued 2023 March 29, 10:57 UT
    
         The Minor Planet Electronic Circulars contain information on unusual
             minor planets, routine data on comets and natural satellites,
             and occasional editorial announcements.  They are published
        on behalf of Division F of the International Astronomical Union by the
              Minor Planet Center, Smithsonian Astrophysical Observatory,
                              Cambridge, MA 02138, U.S.A.
    			  
                 Prepared using the Tamkin Foundation Computer Network
    
                                  MPC@CFA.HARVARD.EDU
                URL https://www.minorplanetcenter.net/    ISSN 1523-6714
    
                                    2023 FF7                                 
    
    
    Observations:
         K23F07F*1C2023 03 28.28521912 14 10.070+05 22 40.40         20.10GVEF208G96
         K23F07F 1C2023 03 28.29038212 14 09.360+05 20 36.40               VEF208G96
         K23F07F 1C2023 03 28.29554612 14 08.660+05 18 34.00               VEF208G96
         K23F07F 1C2023 03 28.30075812 14 07.960+05 16 28.10               VEF208G96
         K23F07F KC2023 03 28.36172512 13 59.758+04 51 56.30         20.25GVEF208I52
         K23F07F KC2023 03 28.36245512 13 59.675+04 51 38.88         19.85GVEF208I52
         K23F07F KC2023 03 28.36319512 13 59.552+04 51 20.66         20.24GVEF208I52
         K23F07F KC2023 03 28.36393612 13 59.466+04 51 02.41         19.84GVEF208I52
         K23F07F KC2023 03 28.45244212 13 48.932+04 14 34.40         19.93GVEF208I52
         K23F07F KC2023 03 28.45347912 13 48.824+04 14 08.52         19.78GVEF208I52
         K23F07F KC2023 03 28.45451512 13 48.713+04 13 42.56         20.03GVEF208I52
         K23F07F KC2023 03 28.45554912 13 48.619+04 13 16.46         19.95GVEF208I52
         K23F07F KC2023 03 28.88810812 13 45.48 +01 01 00.2          19.4 GVEF208203
         K23F07F KC2023 03 28.90404212 13 43.44 +00 53 28.8          19.6 GVEF208203
         K23F07F KC2023 03 28.92608912 13 40.65 +00 43 02.5                VEF208203
         K23F07F hC2023 03 28.98710112 13 31.36 +00 13 48.3          19.6 GVEF208L01
         K23F07F hC2023 03 28.98859012 13 31.18 +00 13 03.6          19.6 GVEF208L01
         K23F07F hC2023 03 28.99008112 13 30.97 +00 12 20.6          19.7 GVEF208L01
         K23F07F hC2023 03 28.99156812 13 30.74 +00 11 37.9          19.6 GVEF208L01
         K23F07F KC2023 03 29.14939612 13 32.83 -01 06 09.3          19.6 VVEF208H21
         K23F07F KC2023 03 29.15132412 13 32.56 -01 07 08.6          19.8 VVEF208H21
         K23F07F KC2023 03 29.15325312 13 32.32 -01 08 07.1          19.7 VVEF208H21
         K23F07F KC2023 03 29.15518212 13 32.06 -01 09 05.0          19.9 VVEF208H21
         K23F07F KC2023 03 29.15711012 13 31.79 -01 10 03.7          19.6 VVEF208H21
         K23F07F KC2023 03 29.18283 12 13 30.23 -01 23 08.2          20.0 VqEF208734
         K23F07F KC2023 03 29.18905 12 13 29.35 -01 26 19.1          19.7 VqEF208734
         K23F07F KC2023 03 29.19013312 13 31.87 -01 26 36.4          20.0 GXEF208858
         K23F07F KC2023 03 29.19517 12 13 28.44 -01 29 26.9          19.7 VqEF208734
         K23F07F KC2023 03 29.19551012 13 31.17 -01 29 22.1          19.6 GXEF208858
         K23F07F KC2023 03 29.20094212 13 30.40 -01 32 08.9          19.4 GXEF208858
         K23F07F |C2023 03 29.21333 12 13 19.00 -01 33 24.8          19.8 VuEF208807
         K23F07F |C2023 03 29.21526 12 13 18.70 -01 34 24.9          19.9 VuEF208807
         K23F07F |C2023 03 29.21720 12 13 18.34 -01 35 24.3          20.1 VuEF208807
    
    Observer details:
    203 GiaGa Observatory.  Observers S. Foglia, G. Galli.  Measurer G. Galli.
        0.36-m f/5.76 Schmidt-Cassegrain + CCD.
    734 Farpoint Observatory, Eskridge.  Observers D. Cromer, G. Hug, D. Goodin,
        R. Valentine.  Measurer D. Cromer.  0.70-m f/3.0 reflector + CCD.
    807 Cerro Tololo Observatory, La Serena.  Observers T. Linder, R. Holmes, L.
        Horn.  0.61-m f/6.5 Dall-Kirkham Astrograph + CCD.
    858 Tebbutt Observatory, Edgewood.  Observer F. B. Zoltowski.  0.51-m f/8.1
        Schmidt-Cassegrain + CCD.
    G96 Mt. Lemmon Survey.  Observer G. J. Leonard.  Measurers E. J. Christensen,
        D. Fay, J. B. Fazekas, D. C. Fuls, A. R. Gibbs, A. D. Grauer, H. Groeller,
        J. K. Hogan, R. A. Kowalski, S. M. Larson, G. J. Leonard, D. Rankin, R. L.
        Seaman, A. Serrano, F. C. Shelly, K. W. Wierzchos.  1.5-m reflector + 10K
        CCD.
    H21 Astronomical Research Observatory, Westfield.  Observer R. Holmes.
        Measurers T. Linder, R. Holmes, L. Horn.  0.76-m f/3.0 astrograph + CCD.
    I52 Steward Observatory, Mt. Lemmon Station.  Observer J. B. Fazekas.
        Measurers E. J. Christensen, D. Fay, J. B. Fazekas, D. C. Fuls, A. R.
        Gibbs, A. D. Grauer, H. Groeller, J. K. Hogan, R. A. Kowalski, S. M.
        Larson, G. J. Leonard, D. Rankin, R. L. Seaman, A. Serrano, F. C. Shelly,
        K. W. Wierzchos.  1.0-m prime focus + CCD.
    L01 Visnjan Observatory, Tican.  Observer K. Korlevic.  1.0-m f/2.9 reflector
        + CCD.
    
    Orbital elements:
    2023 FF7                                                 Earth MOID = 0.0221 AU
    Epoch 2023 Feb. 25.0 TT = JDT 2460000.5                 Veres                   
    M 332.19564              (2000.0)            P               Q                  
    n   0.43711204     Peri.  217.55563     -0.70467548     +0.70892936             
    a   1.7195212      Node     7.79715     -0.58761560     -0.56004982             
    e   0.4395775      Incl.   12.42174     -0.39766867     -0.42867629             
    P   2.25           H   26.95          G   0.15           U   7                  
    Residuals in seconds of arc
    230328 G96  0.2+  0.4+    230328 I52  0.1-  0.0     230329 H21  0.1+  0.8+
    230328 G96  0.1-  0.5-    230328 203  0.5+  0.6+    230329 H21  0.0   0.8+
    230328 G96  0.1-  0.3+    230328 203  0.4-  0.3-    230329 734 (1.2+  0.3-)
    230328 G96  0.0   0.9-    230328 203  0.3+  0.3+    230329 734  1.0+  0.2-
    230328 I52  0.1+  0.1+    230328 L01  0.1-  0.6+    230329 858  0.0   0.5+
    230328 I52  0.3+  0.5+    230328 L01  0.2+  0.8-    230329 734  0.3+  0.2+
    230328 I52  0.1-  0.3+    230328 L01  0.0   0.6-    230329 858  0.6+  0.2+
    230328 I52  0.1+  0.1+    230328 L01  0.4-  0.1-    230329 858  0.4+  0.7+
    230328 I52  0.1-  0.1+    230329 H21  0.0   0.5+    230329 807  0.5-  0.1+
    230328 I52  0.2-  0.2+    230329 H21  0.2-  0.2-    230329 807  0.3-  0.4-
    230328 I52  0.2-  0.2+    230329 H21  0.1+  0.0     230329 807 (1.1-  0.2+)
    
    Ephemeris:
    2023 FF7                 a,e,i = 1.72, 0.44, 12                  q = 0.9637
    Date    TT    R. A. (2000) Decl.     Delta      r    Elong.  Phase     V
    2023 02 27    12 13 22.9 +35 30 22   0.2241  1.1815   145.4    28.4    25.3
    ...
    2023 03 14    12 17 28.8 +33 13 02   0.1208  1.0982   147.9    28.7    23.8
    ...
    2023 03 22    12 16 51.2 +26 20 12   0.07024 1.0593   153.1    25.1    22.5
    ...
    2023 03 28    12 14 20.9 +07 13 36   0.03621 1.0335   169.8     9.9    20.5
    2023 03 29    12 13 33.4 +00 11 13   0.03150 1.0295   175.1     4.8    19.9
    2023 03 30    12 12 31.8 -09 07 18   0.02745 1.0256   172.5     7.3    19.7
    ...
    2023 04 05    09 27 47.8 -87 47 36   0.03105 1.0044    97.1    81.1    22.3
    ...
    2023 04 13    00 24 53.7 -62 43 51   0.07423 0.9825    72.4   103.5    25.1
    ...
    2023 04 28    00 24 20.1 -51 34 49   0.1616  0.9635    70.1   100.9    26.6
    
    M. P. C. Staff               (C) Copyright 2023 MPC           M.P.E.C. 2023-F208
    


    Read MPEC 2023-F207 Read MPEC 2023-F209


    MPEC number:

    Enter an MPEC number in one of the following forms:

    • 1997-B01 (the full form)
    • J97B01 (the packed version of the full form)
    • B01 (the abbreviated form)